Wind_Speed
37 37 38 40 41 41 41 43 42 42 43 44 44 44 45 44 44 45 44 44 44 45 44 42 41 40 39 38 37 37 37 36 35 36 37 37 36 35 36 37 37 37 38
36 36 37 38 39 39 39 41 40 40 41 43 45 44 44 45 44 44 43 44 44 43 42 40 40 40 39 38 37 37 36 36 37 37 37 37 37 37 36 36 37 38 39
36 35 35 36 36 36 38 39 40 40 41 42 43 43 43 44 43 42 43 43 43 42 41 40 39 39 39 38 37 36 35 36 37 36 36 37 38 37 36 37 37 38 38
34 34 34 35 35 35 36 38 39 39 40 41 42 42 41 41 41 40 40 41 42 41 40 39 39 38 38 37 35 35 35 36 36 36 36 36 37 38 38 38 38 37 37
32 33 33 34 34 34 35 36 37 38 38 38 39 39 39 39 40 40 38 39 40 40 39 39 38 38 38 37 36 35 35 36 36 36 35 35 35 37 37 37 36 36 36
30 31 32 33 33 34 35 36 36 37 37 36 36 38 38 38 38 38 36 37 38 39 38 38 39 38 39 39 38 36 36 36 36 37 36 36 35 35 36 36 36 36 35
30 31 32 32 33 33 34 34 35 35 35 35 35 35 36 36 36 35 35 35 36 36 37 38 39 38 38 38 38 37 38 37 36 36 36 35 35 35 35 36 35 35 34
29 30 31 31 32 33 33 33 33 33 33 33 33 33 34 34 35 35 34 34 35 35 36 38 38 37 36 37 38 37 37 37 37 36 35 36 36 35 34 34 34 34 33
28 30 30 30 30 31 31 32 31 32 33 32 32 32 32 33 33 34 34 33 34 35 35 35 36 36 35 37 37 36 36 36 35 34 34 35 35 33 34 34 34 33 32
29 29 29 29 29 29 30 30 30 30 30 29 30 31 31 32 32 32 33 33 34 34 34 33 35 35 34 34 35 35 35 34 33 34 34 33 33 33 33 33 32 31 31
27 28 28 28 28 28 28 28 28 28 29 29 29 29 30 31 31 31 32 33 33 33 33 34 35 35 34 33 33 34 33 34 33 34 33 32 31 31 31 31 30 30 30
26 27 27 27 27 27 27 27 27 27 28 28 28 28 28 29 29 30 31 31 31 32 32 32 32 34 34 33 32 32 33 33 32 32 32 31 30 29 29 29 28 28 28
24 25 26 27 26 26 26 26 27 27 27 27 28 29 29 29 28 28 29 29 29 30 31 30 31 33 34 32 31 31 31 32 31 31 30 29 29 29 27 26 26 27 27
21 22 23 23 24 25 26 26 26 26 27 27 27 28 28 27 27 27 27 27 26 27 28 30 31 31 32 33 32 30 29 29 29 29 28 27 27 26 25 26 26 26 26
19 20 21 22 23 23 24 24 24 25 25 25 26 26 26 27 27 27 26 26 26 27 27 28 29 29 30 31 31 30 29 29 28 27 27 26 25 25 25 25 25 25 25
18 18 20 20 21 22 22 22 23 23 23 24 24 24 25 25 26 26 25 24 25 25 26 27 27 27 28 29 29 28 28 28 27 26 25 25 24 24 25 24 24 23 23
18 18 18 19 20 20 20 21 21 21 22 22 22 23 23 24 24 25 24 24 24 25 25 25 25 26 27 28 27 27 27 27 26 25 25 24 23 23 23 23 23 22 22
18 18 18 19 19 20 20 20 21 21 21 22 22 23 23 23 24 24 24 24 24 24 24 24 24 24 25 26 26 26 26 25 24 23 23 22 22 23 22 22 22 22 21
18 18 18 18 18 19 20 20 21 21 21 21 21 22 22 23 24 24 24 24 23 23 23 23 23 22 22 23 24 25 25 24 23 22 22 22 22 22 22 22 22 21 20
19 18 18 18 18 18 19 19 19 20 20 20 20 21 21 21 21 22 23 23 22 22 21 22 22 21 21 21 23 24 24 24 23 21 21 21 21 20 21 21 20 19 18
18 18 18 18 18 17 18 18 18 18 18 19 19 19 20 20 20 20 20 21 21 20 20 20 20 20 20 21 21 22 22 22 21 20 20 20 20 20 20 19 18 17 16
17 17 17 17 17 17 17 16 16 16 16 17 17 17 17 17 17 17 18 19 20 19 19 18 19 18 18 18 19 20 20 21 20 19 19 19 19 18 18 17 16 16 15
16 16 16 16 16 16 16 15 15 15 15 15 15 15 15 15 16 16 16 17 18 18 18 18 17 17 16 17 17 18 19 19 19 19 18 18 18 17 16 16 16 15 15
16 16 16 15 15 15 15 15 14 14 14 14 14 14 14 14 14 15 15 16 16 16 16 16 16 16 15 15 16 17 17 17 18 18 17 16 16 16 16 15 15 15 14
16 15 15 15 14 14 14 14 14 14 14 13 12 13 13 13 14 14 14 14 15 15 15 16 16 16 16 15 15 15 16 16 16 16 16 16 15 14 14 14 14 14 13
15 15 14 14 14 14 14 14 14 14 13 13 12 12 12 12 13 13 13 14 15 15 14 15 15 15 16 16 15 15 15 15 15 15 15 15 15 14 13 13 13 13 12
Wind_Direction
257 257 257 258 258 255 253 251 252 252 252 251 251 252 253 253 254 255 254 253 253 254 255 256 257 258 259 260 261 262 263 268 270 272 274 276 278 281 284 287 290 292 293
257 258 258 258 258 256 255 253 253 254 253 253 253 254 253 254 255 254 254 253 252 253 253 254 256 256 256 258 260 262 264 267 270 272 275 276 277 280 285 288 290 291 293
258 259 260 259 258 257 256 255 255 254 253 254 254 254 253 254 253 255 254 252 250 251 252 253 254 254 255 255 257 260 264 268 271 272 274 276 277 279 283 287 290 291 292
259 260 261 260 259 258 258 256 255 255 254 256 255 254 252 253 253 253 253 251 248 248 250 251 253 254 254 253 254 259 264 268 271 273 275 277 278 280 282 285 288 289 291
263 262 261 261 260 260 259 259 257 254 252 254 254 252 250 251 252 254 253 251 248 248 248 250 251 253 253 252 255 260 264 269 271 273 276 277 279 281 282 284 287 288 291
264 263 261 262 261 261 260 260 258 255 253 253 253 251 250 251 253 254 251 252 249 247 248 249 251 254 254 254 256 260 266 270 271 273 275 278 280 283 283 284 287 289 290
264 263 262 262 261 261 260 259 257 255 253 252 252 251 250 251 254 253 252 251 248 247 248 250 251 253 255 254 257 260 265 270 272 273 276 279 280 283 285 285 286 288 288
264 262 261 263 262 261 260 259 256 254 253 254 252 251 251 253 254 254 254 251 247 248 248 250 250 252 254 255 256 261 265 269 271 273 275 277 279 281 283 284 285 287 288
267 264 262 263 263 261 260 258 255 254 254 254 250 251 251 254 256 255 255 251 249 250 249 248 248 251 254 257 259 262 265 268 268 271 274 275 276 279 282 284 285 287 288
268 266 262 261 262 261 258 256 256 256 256 254 250 252 254 254 255 254 255 252 252 251 250 250 250 251 254 257 261 262 264 265 266 268 272 274 276 278 280 282 284 286 288
268 266 263 261 260 259 258 257 256 256 256 253 252 254 255 253 254 253 253 252 252 251 251 251 252 253 254 256 259 261 262 262 264 268 271 274 276 278 281 283 284 287 290
268 266 264 263 263 262 260 259 258 257 256 254 254 254 252 252 253 251 251 252 253 252 251 252 252 253 254 255 257 259 260 261 264 269 271 272 273 276 279 282 284 287 290
270 269 265 264 264 262 260 259 258 257 256 256 256 256 255 254 251 250 252 252 252 253 252 253 254 254 255 255 254 257 260 262 265 268 270 270 272 274 276 280 284 287 289
275 270 264 262 262 260 259 257 257 258 258 258 257 256 253 251 250 250 250 251 251 254 255 255 255 254 253 255 255 258 261 261 263 266 267 268 270 272 275 280 284 286 288
276 271 267 265 261 260 261 259 257 258 258 256 254 253 252 251 250 249 249 251 252 253 255 257 257 256 255 255 256 259 259 258 261 263 264 267 269 273 277 281 283 284 287
279 275 270 267 263 262 262 262 260 258 256 252 251 252 253 253 250 249 249 251 252 254 256 257 256 255 255 254 256 258 257 257 260 260 262 266 268 273 277 279 281 283 286
282 280 275 270 266 263 262 262 261 261 257 255 252 252 253 253 250 249 247 249 252 253 254 256 256 255 255 254 254 255 255 257 259 259 262 265 269 275 277 278 280 282 283
282 281 277 273 268 265 264 263 263 262 259 257 253 253 255 253 250 249 249 250 251 252 253 254 255 254 255 254 254 253 254 255 256 257 259 263 270 274 275 275 277 279 279
281 281 279 275 271 268 266 266 265 262 260 258 255 255 255 253 252 252 253 252 252 252 251 251 252 253 253 254 253 252 252 252 253 254 257 262 267 271 272 273 274 275 275
284 281 279 277 274 271 268 267 266 263 261 258 257 256 255 254 252 252 252 253 253 252 252 252 251 250 251 253 254 250 248 250 251 252 256 259 263 266 268 270 271 271 273
287 283 281 279 276 273 270 267 265 264 262 260 258 257 255 252 251 250 251 253 251 251 251 250 250 251 253 252 251 245 244 247 249 252 254 258 261 264 265 265 267 268 271
290 287 285 280 276 273 271 269 267 265 264 262 258 255 254 250 248 248 249 247 244 247 248 248 249 251 253 249 246 243 243 245 246 251 253 254 256 257 258 260 262 265 267
290 289 287 283 276 272 271 269 266 264 265 263 258 253 250 249 248 249 248 244 242 241 243 246 248 252 251 248 246 243 243 244 247 248 249 250 252 252 253 257 259 261 262
289 287 286 283 276 272 269 267 263 261 262 262 257 251 248 247 247 246 243 243 241 242 245 245 247 250 252 252 250 247 246 247 246 244 244 245 247 249 249 253 256 257 258
289 286 284 280 273 269 267 265 261 257 257 257 251 246 246 245 243 240 240 241 241 243 243 245 247 247 248 251 251 249 247 246 245 244 244 243 246 248 250 252 254 256 258
289 286 282 279 275 269 267 265 262 258 253 248 244 242 244 243 241 241 243 244 243 243 243 246 246 246 248 249 247 245 244 242 242 242 242 242 243 244 247 249 252 255 258
Height
5596 5598 5599 5601 5602 5604 5606 5609 5612 5615 5617 5620 5623 5626 5629 5631 5633 5635 5638 5641 5644 5647 5650 5653 5656 5658 5661 5663 5665 5667 5669 5670 5671 5672 5671 5670 5670 5669 5668 5666 5663 5661 5658
5588 5590 5591 5592 5593 5595 5598 5600 5602 5605 5607 5610 5613 5616 5618 5620 5623 5625 5628 5630 5633 5637 5640 5643 5645 5648 5651 5653 5655 5658 5659 5661 5661 5662 5662 5661 5660 5659 5658 5657 5654 5652 5649
5580 5581 5582 5583 5585 5586 5588 5590 5592 5595 5597 5600 5603 5606 5608 5610 5612 5615 5617 5620 5623 5626 5629 5632 5635 5638 5641 5644 5646 5648 5650 5651 5651 5652 5653 5652 5651 5650 5649 5647 5645 5642 5639
5572 5573 5573 5574 5576 5577 5578 5580 5582 5584 5587 5590 5592 5595 5597 5599 5602 5604 5607 5610 5613 5615 5619 5622 5626 5629 5632 5634 5636 5639 5640 5641 5642 5643 5643 5643 5642 5641 5639 5638 5636 5633 5630
5563 5564 5565 5566 5567 5568 5569 5570 5572 5574 5577 5579 5582 5584 5587 5589 5592 5594 5597 5600 5603 5606 5610 5613 5616 5620 5622 5625 5627 5629 5631 5632 5633 5633 5633 5633 5632 5631 5630 5628 5627 5625 5622
5555 5555 5556 5557 5558 5559 5560 5561 5563 5565 5567 5570 5572 5575 5578 5580 5583 5585 5587 5591 5593 5597 5601 5604 5607 5610 5613 5616 5618 5619 5621 5622 5623 5624 5624 5624 5623 5622 5621 5619 5618 5616 5614
5547 5547 5548 5549 5550 5551 5552 5552 5554 5556 5558 5561 5563 5566 5569 5571 5573 5575 5578 5581 5585 5588 5592 5595 5598 5600 5603 5606 5608 5610 5611 5612 5613 5614 5615 5614 5614 5614 5612 5611 5609 5607 5605
5538 5539 5540 5541 5541 5542 5543 5544 5546 5548 5550 5553 5555 5558 5560 5563 5565 5567 5570 5573 5576 5580 5583 5586 5589 5591 5594 5597 5599 5601 5602 5603 5604 5605 5606 5605 5605 5604 5603 5602 5601 5599 5597
5530 5531 5531 5532 5533 5534 5535 5536 5538 5540 5543 5545 5547 5550 5552 5555 5557 5560 5562 5565 5568 5571 5573 5577 5580 5582 5585 5588 5590 5592 5593 5594 5594 5595 5596 5596 5596 5595 5594 5593 5592 5591 5589
5523 5523 5524 5524 5525 5526 5527 5529 5531 5532 5534 5536 5539 5542 5544 5547 5549 5552 5554 5557 5560 5562 5565 5568 5571 5573 5576 5578 5580 5582 5584 5585 5586 5587 5587 5587 5586 5586 5585 5584 5584 5583 5581
5516 5516 5516 5517 5518 5519 5520 5522 5523 5525 5527 5529 5532 5534 5537 5540 5542 5544 5546 5549 5551 5554 5556 5559 5561 5564 5566 5569 5571 5573 5575 5576 5577 5578 5578 5578 5578 5577 5577 5576 5575 5575 5573
5509 5509 5510 5510 5511 5512 5513 5514 5516 5518 5520 5522 5524 5527 5529 5531 5534 5536 5538 5540 5543 5545 5548 5550 5553 5555 5557 5560 5562 5564 5566 5567 5569 5569 5570 5570 5570 5570 5569 5568 5567 5566 5565
5502 5502 5503 5503 5504 5505 5506 5508 5509 5511 5513 5515 5517 5519 5521 5523 5526 5528 5530 5533 5535 5537 5539 5542 5544 5546 5549 5551 5554 5556 5557 5559 5560 5561 5562 5562 5562 5562 5562 5561 5560 5559 5557
5497 5496 5496 5497 5498 5498 5500 5501 5503 5504 5505 5507 5509 5512 5514 5516 5518 5520 5523 5525 5527 5529 5532 5534 5536 5538 5540 5543 5545 5547 5549 5551 5552 5553 5554 5554 5554 5554 5554 5554 5553 5552 5550
5491 5491 5491 5491 5492 5492 5493 5494 5496 5497 5498 5500 5502 5504 5506 5509 5511 5513 5515 5518 5520 5522 5524 5526 5528 5530 5532 5534 5537 5539 5541 5543 5544 5545 5546 5547 5547 5547 5547 5547 5546 5545 5544
5486 5485 5485 5486 5486 5487 5487 5488 5489 5490 5491 5493 5495 5497 5499 5501 5503 5506 5508 5510 5512 5514 5516 5518 5520 5521 5524 5526 5529 5531 5533 5535 5537 5538 5539 5540 5540 5540 5540 5539 5539 5538 5538
5480 5480 5480 5480 5480 5481 5481 5482 5483 5484 5484 5486 5488 5490 5492 5493 5496 5498 5500 5502 5504 5507 5509 5510 5512 5514 5516 5519 5521 5523 5525 5527 5529 5530 5532 5533 5533 5534 5533 5533 5532 5532 5532
5475 5475 5474 5474 5474 5475 5475 5476 5477 5477 5478 5479 5481 5483 5485 5486 5488 5491 5493 5495 5497 5499 5501 5503 5505 5507 5509 5511 5513 5515 5517 5519 5521 5523 5525 5526 5527 5527 5527 5527 5527 5526 5526
5470 5469 5469 5469 5468 5469 5469 5470 5470 5471 5472 5473 5475 5476 5478 5480 5481 5483 5485 5487 5490 5492 5494 5496 5498 5500 5502 5504 5506 5508 5509 5512 5514 5516 5518 5519 5520 5521 5521 5521 5521 5521 5521
5465 5464 5464 5463 5463 5463 5464 5464 5465 5465 5466 5467 5468 5470 5471 5473 5474 5476 5478 5480 5482 5485 5487 5489 5491 5493 5495 5497 5499 5501 5502 5505 5507 5509 5511 5513 5513 5514 5515 5515 5516 5516 5516
5460 5459 5459 5458 5458 5458 5458 5459 5459 5460 5460 5461 5463 5464 5465 5466 5468 5470 5472 5474 5476 5478 5481 5483 5485 5486 5488 5490 5492 5494 5496 5498 5501 5503 5505 5506 5507 5508 5509 5510 5510 5510 5511
5455 5454 5454 5453 5453 5453 5453 5454 5454 5455 5455 5456 5457 5458 5459 5461 5462 5464 5466 5468 5470 5473 5475 5477 5479 5481 5483 5484 5486 5488 5490 5493 5495 5497 5499 5500 5502 5503 5504 5505 5505 5506 5506
5451 5450 5449 5448 5448 5448 5448 5449 5449 5450 5451 5452 5452 5453 5454 5456 5458 5459 5461 5463 5465 5468 5470 5472 5474 5476 5478 5479 5481 5483 5485 5487 5490 5492 5493 5495 5496 5497 5499 5500 5501 5502 5502
5446 5445 5444 5444 5444 5444 5444 5444 5445 5446 5447 5447 5448 5449 5450 5452 5453 5455 5457 5458 5460 5463 5465 5467 5470 5472 5473 5475 5476 5478 5480 5482 5484 5486 5488 5490 5491 5493 5494 5495 5497 5497 5498
5441 5441 5440 5439 5439 5439 5440 5440 5441 5442 5442 5443 5444 5445 5446 5448 5449 5451 5453 5455 5456 5459 5461 5463 5465 5467 5469 5471 5472 5474 5476 5477 5479 5481 5483 5485 5487 5488 5490 5491 5493 5494 5494
5437 5436 5435 5435 5435 5435 5435 5436 5436 5437 5438 5439 5440 5442 5443 5444 5446 5447 5449 5451 5453 5455 5457 5459 5461 5463 5464 5466 5468 5470 5471 5473 5475 5477 5479 5481 5482 5484 5486 5487 5489 5490 5490